�������l�o���
Date,Time,MP-1(��Sv/h),MP-2(��Sv/h),MP-3(��Sv/h),MP-4(��Sv/h),MP-5(��Sv/h),MP-6(��Sv/h),MP-7(��Sv/h),MP-8(��Sv/h),����,����(m/s),���J
2020/09/30,00:00,0.662,0.945,0.603,1.158,0.828,0.385,0.669,0.632,�k�k��,7.4,��
2020/09/30,00:10,0.664,0.945,0.604,1.158,0.827,0.384,0.669,0.633,�k�k��,7.1,��
2020/09/30,00:20,0.664,0.945,0.602,1.158,0.828,0.385,0.668,0.632,�k�k��,6.1,��
2020/09/30,00:30,0.664,0.946,0.604,1.158,0.827,0.384,0.671,0.632,�k�k��,6.3,��
2020/09/30,00:40,0.663,0.945,0.602,1.157,0.826,0.385,0.669,0.633,�k�k��,6.5,��
2020/09/30,00:50,0.663,0.943,0.604,1.157,0.828,0.383,0.670,0.633,�k�k��,6.2,��
2020/09/30,01:00,0.663,0.942,0.602,1.157,0.830,0.384,0.670,0.632,�k�k��,6.0,��
2020/09/30,01:10,0.663,0.944,0.602,1.158,0.829,0.383,0.670,0.633,�k��,6.2,��
2020/09/30,01:20,0.664,0.945,0.602,1.159,0.827,0.386,0.670,0.633,�k�k��,6.6,��
2020/09/30,01:30,0.664,0.946,0.602,1.158,0.828,0.385,0.671,0.632,�k��,6.7,��
2020/09/30,01:40,0.664,0.944,0.603,1.157,0.828,0.385,0.671,0.633,�k�k��,6.8,��
2020/09/30,01:50,0.665,0.946,0.603,1.160,0.827,0.384,0.670,0.633,�k�k��,6.8,��
2020/09/30,02:00,0.665,0.946,0.604,1.157,0.828,0.385,0.670,0.633,�k�k��,6.7,��
2020/09/30,02:10,0.665,0.945,0.604,1.159,0.828,0.386,0.669,0.633,�k�k��,6.4,��
2020/09/30,02:20,0.665,0.945,0.602,1.158,0.828,0.383,0.670,0.633,�k�k��,6.3,��
2020/09/30,02:30,0.664,0.944,0.602,1.158,0.829,0.385,0.669,0.631,�k�k��,6.5,��
2020/09/30,02:40,0.663,0.945,0.603,1.158,0.828,0.384,0.670,0.633,�k�k��,6.2,��
2020/09/30,02:50,0.665,0.946,0.602,1.161,0.829,0.385,0.671,0.633,�k�k��,6.4,��
2020/09/30,03:00,0.664,0.946,0.603,1.159,0.828,0.385,0.669,0.633,�k�k��,6.6,��
2020/09/30,03:10,0.665,0.944,0.602,1.159,0.830,0.386,0.670,0.633,�k�k��,6.7,��
2020/09/30,03:20,0.664,0.944,0.603,1.155,0.828,0.385,0.669,0.631,�k�k��,7.2,��
2020/09/30,03:30,0.664,0.946,0.603,1.159,0.827,0.386,0.668,0.633,�k�k��,8.0,��
2020/09/30,03:40,0.664,0.945,0.603,1.158,0.827,0.384,0.672,0.632,�k�k��,7.8,��
2020/09/30,03:50,0.663,0.943,0.602,1.160,0.828,0.384,0.669,0.632,�k�k��,7.5,��
2020/09/30,04:00,0.662,0.944,0.603,1.158,0.830,0.386,0.670,0.632,�k�k��,6.8,��
2020/09/30,04:10,0.665,0.946,0.602,1.158,0.830,0.385,0.668,0.632,�k�k��,6.3,��
2020/09/30,04:20,0.665,0.945,0.603,1.159,0.830,0.384,0.669,0.633,�k�k��,6.4,��
2020/09/30,04:30,0.664,0.944,0.601,1.159,0.829,0.384,0.670,0.634,�k��,7.2,�L
2020/09/30,04:40,0.663,0.943,0.602,1.159,0.828,0.384,0.670,0.631,�k�k��,7.1,��
2020/09/30,04:50,0.664,0.945,0.603,1.158,0.828,0.384,0.669,0.633,�k�k��,7.0,��
2020/09/30,05:00,0.662,0.945,0.602,1.162,0.829,0.385,0.670,0.632,�k�k��,6.6,��
2020/09/30,05:10,0.664,0.945,0.603,1.160,0.829,0.384,0.670,0.634,�k��,6.5,��
2020/09/30,05:20,0.663,0.944,0.601,1.162,0.828,0.383,0.670,0.634,�k��,7.6,��
2020/09/30,05:30,0.663,0.944,0.603,1.160,0.829,0.384,0.669,0.632,�k�k��,7.2,��
2020/09/30,05:40,0.663,0.943,0.603,1.160,0.828,0.386,0.669,0.635,�k�k��,6.9,��
2020/09/30,05:50,0.664,0.944,0.602,1.159,0.828,0.385,0.669,0.633,�k�k��,7.1,��
2020/09/30,06:00,0.663,0.947,0.602,1.158,0.829,0.385,0.668,0.633,�k�k��,6.6,��
2020/09/30,06:10,0.664,0.945,0.602,1.160,0.826,0.385,0.669,0.632,�k��,6.9,��
2020/09/30,06:20,0.664,0.945,0.605,1.161,0.829,0.385,0.668,0.631,�k��,6.6,��
2020/09/30,06:30,0.666,0.945,0.602,1.158,0.828,0.385,0.670,0.631,�k��,7.1,��
2020/09/30,06:40,0.664,0.944,0.605,1.159,0.826,0.384,0.668,0.633,�k�k��,6.4,��
2020/09/30,06:50,0.666,0.945,0.604,1.163,0.828,0.385,0.669,0.633,�k��,6.9,��
2020/09/30,07:00,0.665,0.947,0.602,1.158,0.828,0.385,0.669,0.632,�k��,6.0,��
2020/09/30,07:10,0.664,0.945,0.603,1.159,0.829,0.385,0.668,0.634,�k�k��,6.5,��
2020/09/30,07:20,0.663,0.948,0.603,1.162,0.829,0.384,0.669,0.632,�k�k��,6.1,��
2020/09/30,07:30,0.665,0.947,0.603,1.161,0.829,0.383,0.669,0.634,�k��,6.7,��
2020/09/30,07:40,0.666,0.945,0.602,1.161,0.828,0.384,0.668,0.632,�k�k��,7.3,��
2020/09/30,07:50,0.663,0.944,0.603,1.159,0.830,0.385,0.668,0.632,�k�k��,7.3,��
2020/09/30,08:00,0.667,0.945,0.603,1.160,0.828,0.384,0.668,0.635,�k�k��,7.0,��
2020/09/30,08:10,0.664,0.945,0.604,1.161,0.830,0.383,0.668,0.633,�k�k��,6.5,��
2020/09/30,08:20,0.664,0.942,0.604,1.161,0.829,0.385,0.668,0.631,�k�k��,5.9,��
2020/09/30,08:30,0.663,0.944,0.603,1.160,0.829,0.384,0.669,0.632,�k�k��,6.8,��
2020/09/30,08:40,0.664,0.940,0.603,1.163,0.829,0.384,0.667,0.630,�k�k��,7.4,��
2020/09/30,08:50,0.665,0.942,0.603,1.162,0.829,0.384,0.669,0.632,�k�k��,6.9,��
2020/09/30,09:00,0.664,0.943,0.603,1.161,0.830,0.382,0.670,0.630,�k�k��,4.9,��
2020/09/30,09:10,0.662,0.937,0.602,1.162,0.829,0.383,0.668,0.630,�k�k��,6.8,��
2020/09/30,09:20,0.662,0.940,0.603,1.161,0.828,0.383,0.669,0.631,�k�k��,7.8,��
2020/09/30,09:30,0.665,0.938,0.604,1.161,0.830,0.383,0.667,0.631,�k�k��,6.8,��
2020/09/30,09:40,0.665,0.941,0.605,1.162,0.828,0.383,0.669,0.630,�k�k��,7.3,��
2020/09/30,09:50,0.665,0.942,0.602,1.160,0.826,0.383,0.669,0.632,�k,6.7,��
2020/09/30,10:00,0.664,0.940,0.601,1.162,0.829,0.383,0.670,0.630,�k,5.7,��
2020/09/30,10:10,0.663,0.941,0.603,1.160,0.828,0.381,0.670,0.631,�k,6.7,��
2020/09/30,10:20,0.664,0.938,0.603,1.163,0.829,0.384,0.670,0.629,�k,7.2,��
2020/09/30,10:30,0.664,0.941,0.602,1.161,0.829,0.384,0.670,0.629,�k,6.7,��
2020/09/30,10:40,0.665,0.942,0.603,1.164,0.830,0.381,0.669,0.629,�k,7.5,��
2020/09/30,10:50,0.666,0.942,0.603,1.161,0.828,0.383,0.670,0.629,�k,6.3,��
2020/09/30,11:00,0.664,0.942,0.606,1.164,0.827,0.383,0.669,0.630,�k,5.5,��
2020/09/30,11:10,0.666,0.940,0.602,1.162,0.827,0.383,0.668,0.629,�k�k��,5.7,��
2020/09/30,11:20,0.665,0.942,0.604,1.160,0.826,0.385,0.670,0.629,�k,5.7,��
2020/09/30,11:30,0.665,0.943,0.602,1.163,0.827,0.383,0.668,0.630,�k�k��,5.6,��
2020/09/30,11:40,0.663,0.937,0.600,1.163,0.830,0.385,0.670,0.630,�k�k��,5.9,��
2020/09/30,11:50,0.664,0.945,0.601,1.163,0.829,0.383,0.670,0.629,�k�k��,5.2,��
2020/09/30,12:00,0.663,0.946,0.603,1.165,0.827,0.382,0.670,0.630,�k�k��,6.9,��
2020/09/30,12:10,0.664,0.943,0.603,1.165,0.829,0.384,0.670,0.631,�k�k��,6.2,��
2020/09/30,12:20,0.665,0.946,0.603,1.162,0.829,0.385,0.669,0.630,�k�k��,6.0,��
2020/09/30,12:30,0.664,0.946,0.600,1.161,0.829,0.384,0.668,0.630,�k�k��,6.4,��
2020/09/30,12:40,0.664,0.946,0.602,1.163,0.830,0.386,0.670,0.630,�k,5.0,��
2020/09/30,12:50,0.664,0.945,0.601,1.161,0.829,0.384,0.669,0.631,�k�k��,5.7,��
2020/09/30,13:00,0.664,0.942,0.601,1.164,0.831,0.384,0.670,0.631,�k,6.7,��
2020/09/30,13:10,0.665,0.945,0.603,1.163,0.829,0.384,0.669,0.628,�k,5.8,��
2020/09/30,13:20,0.665,0.944,0.603,1.163,0.829,0.385,0.670,0.630,�k,5.6,��
2020/09/30,13:30,0.666,0.944,0.600,1.163,0.832,0.384,0.670,0.630,�k�k��,6.2,��
2020/09/30,13:40,0.665,0.947,0.604,1.164,0.829,0.383,0.670,0.632,�k,6.1,��
2020/09/30,13:50,0.666,0.946,0.604,1.164,0.831,0.384,0.670,0.630,�k,6.9,��
2020/09/30,14:00,0.665,0.946,0.604,1.165,0.831,0.385,0.672,0.632,�k,7.1,��
2020/09/30,14:10,0.664,0.945,0.605,1.164,0.831,0.386,0.670,0.631,�k,7.6,��
2020/09/30,14:20,0.666,0.946,0.605,1.163,0.831,0.385,0.669,0.631,�k,6.4,��
2020/09/30,14:30,0.666,0.944,0.606,1.165,0.833,0.384,0.671,0.631,�k,6.2,��
2020/09/30,14:40,0.666,0.947,0.606,1.166,0.831,0.384,0.671,0.631,�k,6.1,��
2020/09/30,14:50,0.664,0.947,0.606,1.164,0.831,0.384,0.670,0.631,�k,6.3,��
2020/09/30,15:00,0.667,0.942,0.606,1.163,0.831,0.383,0.670,0.631,�k,6.6,��
2020/09/30,15:10,0.665,0.947,0.606,1.163,0.833,0.384,0.668,0.629,�k�k��,7.0,��
2020/09/30,15:20,0.665,0.948,0.605,1.166,0.831,0.385,0.671,0.631,�k,6.8,��
2020/09/30,15:30,0.665,0.947,0.604,1.166,0.831,0.383,0.669,0.631,�k,6.2,��
2020/09/30,15:40,0.665,0.948,0.605,1.166,0.833,0.386,0.671,0.631,�k�k��,6.1,��
2020/09/30,15:50,0.665,0.947,0.604,1.164,0.833,0.384,0.671,0.631,�k�k��,6.3,��
2020/09/30,16:00,0.666,0.948,0.603,1.167,0.830,0.383,0.671,0.630,�k�k��,6.5,��
2020/09/30,16:10,0.666,0.947,0.604,1.168,0.831,0.384,0.671,0.630,�k,5.5,��
2020/09/30,16:20,0.664,0.947,0.603,1.165,0.830,0.383,0.671,0.631,�k,6.4,��
2020/09/30,16:30,0.665,0.947,0.605,1.166,0.832,0.384,0.672,0.630,�k�k��,6.3,��
2020/09/30,16:40,0.665,0.949,0.604,1.168,0.832,0.385,0.671,0.630,�k�k��,6.4,��
2020/09/30,16:50,0.664,0.948,0.603,1.167,0.832,0.385,0.672,0.632,�k�k��,6.1,��
2020/09/30,17:00,0.663,0.949,0.603,1.165,0.830,0.384,0.669,0.632,�k�k��,5.7,��
2020/09/30,17:10,0.663,0.950,0.604,1.165,0.830,0.385,0.670,0.631,�k�k��,5.3,��
2020/09/30,17:20,0.666,0.949,0.606,1.168,0.832,0.386,0.671,0.633,�k�k��,5.5,��
2020/09/30,17:30,0.664,0.952,0.607,1.166,0.830,0.385,0.670,0.634,�k�k��,5.7,��
2020/09/30,17:40,0.665,0.951,0.606,1.166,0.831,0.386,0.669,0.632,�k�k��,6.8,��
2020/09/30,17:50,0.665,0.950,0.608,1.166,0.831,0.385,0.672,0.634,�k�k��,6.4,��
2020/09/30,18:00,0.666,0.952,0.608,1.166,0.834,0.385,0.669,0.633,�k��,6.4,��
2020/09/30,18:10,0.665,0.950,0.607,1.167,0.833,0.385,0.671,0.632,�k�k��,5.8,��
2020/09/30,18:20,0.667,0.951,0.607,1.165,0.836,0.385,0.670,0.633,�k�k��,5.7,��
2020/09/30,18:30,0.665,0.952,0.606,1.169,0.834,0.383,0.670,0.634,�k�k��,5.6,��
2020/09/30,18:40,0.667,0.951,0.607,1.168,0.834,0.385,0.670,0.634,�k�k��,4.1,��
2020/09/30,18:50,0.667,0.949,0.606,1.168,0.835,0.385,0.669,0.633,�k,4.2,��
2020/09/30,19:00,0.667,0.951,0.606,1.167,0.834,0.386,0.669,0.633,�k�k��,2.5,��
2020/09/30,19:10,0.667,0.952,0.606,1.169,0.831,0.385,0.670,0.633,�k��,2.3,��
2020/09/30,19:20,0.667,0.953,0.609,1.167,0.835,0.386,0.670,0.635,�k�k��,1.7,�L
2020/09/30,19:30,0.668,0.951,0.607,1.167,0.835,0.387,0.670,0.634,�k�k��,2.9,��
2020/09/30,19:40,0.667,0.952,0.608,1.164,0.835,0.384,0.669,0.635,�k,2.6,��
2020/09/30,19:50,0.667,0.953,0.608,1.168,0.834,0.385,0.669,0.632,�k,3.1,��
2020/09/30,20:00,0.668,0.952,0.607,1.166,0.835,0.385,0.670,0.633,�k,2.6,��
2020/09/30,20:10,0.666,0.949,0.607,1.166,0.832,0.386,0.670,0.633,�k,3.0,��
2020/09/30,20:20,0.666,0.953,0.607,1.167,0.836,0.386,0.671,0.634,�k�k��,2.2,��
2020/09/30,20:30,0.667,0.952,0.606,1.167,0.835,0.386,0.671,0.634,�k��,2.3,��
2020/09/30,20:40,0.666,0.952,0.606,1.165,0.834,0.387,0.670,0.634,�k��,2.8,��
2020/09/30,20:50,0.668,0.952,0.606,1.167,0.835,0.387,0.670,0.632,�k��,1.7,��
2020/09/30,21:00,0.668,0.951,0.606,1.168,0.835,0.386,0.671,0.634,�k�k��,0.9,��
2020/09/30,21:10,0.667,0.951,0.606,1.166,0.834,0.386,0.671,0.633,���k��,0.9,��
2020/09/30,21:20,0.668,0.951,0.606,1.168,0.835,0.385,0.670,0.634,��,0.6,��
2020/09/30,21:30,0.666,0.952,0.606,1.166,0.835,0.385,0.673,0.634,-,CALM,��
2020/09/30,21:40,0.666,0.950,0.607,1.169,0.836,0.385,0.672,0.635,��,1.7,��
2020/09/30,21:50,0.667,0.952,0.608,1.166,0.833,0.384,0.672,0.634,���k��,1.5,�L
2020/09/30,22:00,0.668,0.951,0.607,1.166,0.835,0.386,0.671,0.634,�k��,1.5,�L
2020/09/30,22:10,0.666,0.952,0.607,1.167,0.835,0.386,0.672,0.632,�k��,1.2,�L
2020/09/30,22:20,0.666,0.951,0.607,1.168,0.836,0.386,0.672,0.633,�k��,2.3,�L
2020/09/30,22:30,0.665,0.953,0.606,1.169,0.834,0.387,0.672,0.633,�k��,2.2,��
2020/09/30,22:40,0.666,0.952,0.607,1.167,0.836,0.386,0.671,0.633,�k��,2.2,��
2020/09/30,22:50,0.667,0.951,0.608,1.166,0.834,0.386,0.671,0.634,�k��,2.3,��
2020/09/30,23:00,0.667,0.954,0.605,1.168,0.835,0.386,0.671,0.634,���k��,1.9,��
2020/09/30,23:10,0.666,0.951,0.608,1.167,0.834,0.386,0.670,0.634,���k��,2.0,��
2020/09/30,23:20,0.666,0.951,0.607,1.166,0.834,0.387,0.670,0.633,�k��,2.2,��
2020/09/30,23:30,0.669,0.951,0.607,1.167,0.834,0.386,0.669,0.632,�k��,1.7,��
2020/09/30,23:40,0.667,0.952,0.607,1.168,0.835,0.386,0.672,0.634,���k��,2.3,��
2020/09/30,23:50,0.666,0.953,0.606,1.167,0.836,0.385,0.670,0.634,�k��,2.0,��
